Hourly Data Report for September 16, 2017

All times are specified in Local Standard Time (LST). Add 1 hour to adjust for Daylight Saving Time where and when it is observed.

WINNIPEG A CS
MANITOBA

49°55'00.000" N
97°14'58.000" W
238.70 m
502S001
71849
XWG

Download Data

Hourly Data (September 2017)
Hourly Data Report for September 16, 2017
Temp Definition
°C
Dew Point Temp Definition
°C
Rel Hum Definition
%
Wind Dir Definition
10's deg

Wind Spd Definition
km/h
Visibility Definition
km
Stn Press Definition
kPa
Hmdx Definition


Wind Chill Definition


Weather Definition


TIME
00:00 8.5 6.7 88 3 36   98.65     LegendNANA
01:00 8.4 6.4 87 4 33   98.65     LegendNANA
02:00 8.1 6.5 89 3 25   98.73     LegendNANA
03:00 7.7 6.9 95 3 27   98.69     LegendNANA
04:00 7.9 7.0 94 3 33   98.67     LegendNANA
05:00 7.9 6.9 94 3 30   98.71     LegendNANA
06:00 8.0 7.2 95 3 30   98.69     LegendNANA
07:00 8.0 7.1 94 3 28   98.74     LegendNANA
08:00 8.1 6.9 92 4 32   98.71     LegendNANA
09:00 8.3 7.1 92 4 25   98.81     LegendNANA
10:00 8.3 7.1 92 4 23   98.82     LegendNANA
11:00 8.6 7.1 90 3 24   98.77     LegendNANA
12:00 8.7 7.0 89 3 25   98.76     LegendNANA
13:00 8.9 7.1 88 4 23   98.74     LegendNANA
14:00 8.8 7.1 89 5 23   98.69     LegendNANA
15:00 8.8 6.9 88 4 23   98.67     LegendNANA
16:00 8.3 7.3 93 4 18   98.64     LegendNANA
17:00 8.3 7.3 93 5 12   98.68     LegendNANA
18:00 8.2 7.5 95 4 14   98.62     LegendNANA
19:00 7.9 7.2 96 4 15   98.59     LegendNANA
20:00 7.8 7.2 95 5 14   98.59     LegendNANA
21:00 7.8 7.2 96 4 11   98.54     LegendNANA
22:00 7.5 7.0 96 4 9   98.50     LegendNANA
23:00 7.5 7.0 97 4 10   98.42     LegendNANA

Notes on Data Quality.

Legend

  • E = Estimated
  • M = Missing
  • NA = Not Available
  • ‡ = Partner data that is not subject to review by the National Climate Archives
Date modified: